Location: Clarkson Observatory
(44.6781°N, 74.9517°W)
Time: 04:59:18
(UTC-05:00)

ISS - Visible Passes

Search period start: 23 January 2018 00:00
Search period end: 02 February 2018 00:00
Orbit: 402 x 407 km, 51.6° (Epoch: 23 January)

Date Brightness Start Highest point End Pass type
(mag) Time Alt. Az. Time Alt. Az. Time Alt. Az.
24 Jan -1.4 19:13:13 10° SSW 19:14:12 17° SSW 19:14:12 17° SSW visible
25 Jan -2.4 18:21:31 10° S 18:24:08 22° SE 18:24:24 22° SE visible
26 Jan -1.5 17:30:32 10° SSE 17:32:02 13° SE 17:33:33 10° ESE visible
26 Jan -2.9 19:04:48 10° WSW 19:07:12 46° WSW 19:07:12 46° WSW visible
27 Jan -3.5 18:12:37 10° SW 18:15:46 49° SE 18:17:14 27° E visible
27 Jan -0.6 19:49:19 10° W 19:49:54 14° W 19:49:54 14° W visible
28 Jan -3.2 18:56:43 10° W 18:59:51 48° NNW 18:59:51 48° NNW visible
29 Jan -3.8 18:04:13 10° WSW 18:07:29 78° NNW 18:09:44 19° NE visible
29 Jan -0.9 19:41:31 10° WNW 19:42:24 16° WNW 19:42:24 16° WNW visible
30 Jan -2.6 18:48:48 10° W 18:51:47 31° NNW 18:52:14 30° N visible
31 Jan -3.0 17:56:08 10° W 17:59:16 42° NNW 18:02:01 13° NE visible
31 Jan -1.1 19:33:36 10° WNW 19:34:40 16° NW 19:34:40 16° NW visible
01 Feb -2.3 18:40:56 10° WNW 18:43:41 25° N 18:44:25 23° NNE visible
